SQ9CIE-4 Weather Reports


time (UTC)temp
F
wind
direction
speed
knots
gust
knots
rain 1hr
in
rain 24hr
in
rain mn
in
humidity
%
barometer
mb
20260507135055 64 116 5.2 7.8 0.00 0.00 0.00 66 1010.0
20260507134555 64 118 4.3 6.1 0.00 0.00 0.00 64 1010.3
20260507134055 64 114 4.3 9.6 0.00 0.00 0.00 64 1010.3
20260507133555 64 132 5.2 7.8 0.00 0.00 0.00 63 1010.1
20260507133055 66 95 7.0 7.8 0.00 0.00 0.00 61 1009.9
20260507132555 66 118 0.0 1.7 0.00 0.00 0.00 60 1010.1
20260507132055 66 118 1.7 3.5 0.00 0.00 0.00 59 1010.0
20260507131555 66 118 3.5 3.5 0.00 0.00 0.00 59 1009.7
20260507131055 68 209 0.0 3.5 0.00 0.00 0.00 58 1009.8
20260507130555 68 209 0.9 6.1 0.00 0.00 0.00 58 1010.0
20260507130055 68 210 0.0 1.7 0.00 0.00 0.00 58 1010.0
20260507125555 66 210 1.7 4.3 0.00 0.00 0.00 60 1010.0
20260507125055 66 207 2.6 4.3 0.00 0.00 0.00 60 1010.1
20260507124555 66 207 0.0 1.7 0.00 0.00 0.00 60 1010.7
20260507124055 66 207 3.5 6.1 0.00 0.00 0.00 60 1010.2
20260507123555 66 240 3.5 4.3 0.00 0.00 0.00 60 1010.2
20260507123055 66 267 1.7 3.5 0.00 0.00 0.00 60 1010.2
20260507122555 66 267 2.6 6.1 0.00 0.00 0.00 60 1010.2
20260507122055 66 252 5.2 6.1 0.00 0.00 0.00 60 1010.0
20260507121555 66 315 0.9 1.7 0.00 0.00 0.00 60 1010.1
20260507121055 66 315 3.5 4.3 0.00 0.00 0.00 60 1010.1
20260507120555 66 289 7.8 9.6 0.00 0.00 0.00 60 1010.3
20260507120055 66 289 2.6 6.1 0.00 0.00 0.00 60 1010.2
20260507115555 66 276 9.6 11.3 0.00 0.00 0.00 59 1010.2
20260507115055 66 268 4.3 4.3 0.00 0.00 0.00 59 1010.0
20260507114555 66 260 3.5 9.6 0.00 0.00 0.00 60 1010.0
20260507114055 66 241 6.1 6.1 0.00 0.00 0.00 61 1010.2
20260507113555 66 282 0.0 4.3 0.00 0.00 0.00 61 1010.1
20260507113055 66 320 4.3 9.6 0.00 0.00 0.00 62 1010.1
20260507112555 64 286 6.1 7.8 0.00 0.00 0.00 62 1010.2
20260507112055 64 263 7.8 9.6 0.00 0.00 0.00 63 1010.4
20260507111555 64 241 4.3 6.1 0.00 0.00 0.00 64 1010.5
20260507111055 64 273 4.3 9.6 0.00 0.00 0.00 64 1010.4
20260507110555 64 235 6.1 7.8 0.00 0.00 0.00 65 1010.3
20260507110055 64 260 3.5 6.1 0.00 0.00 0.00 65 1010.5
20260507105555 64 248 5.2 7.8 0.00 0.00 0.00 65 1010.2
20260507105055 64 246 4.3 6.1 0.00 0.00 0.00 65 1010.4
20260507104555 64 218 0.0 7.8 0.00 0.00 0.00 64 1010.2
20260507104055 64 259 5.2 9.6 0.00 0.00 0.00 65 1010.4
20260507103555 64 271 6.1 7.8 0.00 0.00 0.00 67 1010.4
20260507103055 64 266 9.6 14.8 0.00 0.00 0.00 66 1010.4
20260507102555 64 274 6.1 9.6 0.00 0.00 0.00 66 1010.3
20260507102055 64 225 10.4 15.6 0.00 0.00 0.00 65 1010.1
20260507101555 64 233 6.1 13.0 0.00 0.00 0.00 65 1010.0
20260507101055 64 215 8.7 11.3 0.00 0.00 0.00 64 1010.1
20260507100555 64 276 7.0 7.8 0.00 0.00 0.00 64 1010.0
20260507100055 64 206 7.8 14.8 0.00 0.00 0.00 66 1010.1
20260507095555 64 227 9.6 14.8 0.00 0.00 0.00 66 1010.0
20260507095055 64 263 7.8 14.8 0.00 0.00 0.00 66 1010.0
20260507094555 64 239 7.0 11.3 0.00 0.00 0.00 64 1009.7
20260507094055 64 262 7.8 13.0 0.00 0.00 0.00 68 1010.0
20260507093555 64 231 7.0 19.1 0.00 0.00 0.00 69 1010.1
20260507093055 63 272 8.7 14.8 0.00 0.00 0.00 70 1009.9
20260507092555 63 286 8.7 13.0 0.00 0.00 0.00 71 1009.8
20260507092055 63 273 12.2 15.6 0.00 0.00 0.00 71 1009.9
20260507091555 63 206 7.8 17.4 0.00 0.00 0.00 72 1009.7
20260507091055 63 283 13.9 17.4 0.00 0.00 0.00 71 1009.7
20260507090555 63 264 5.2 9.6 0.00 0.00 0.00 72 1009.6
20260507090055 63 246 9.6 11.3 0.00 0.00 0.00 72 1009.5
20260507085555 63 237 10.4 19.1 0.00 0.00 0.00 71 1009.4
20260507085059 63 271 11.3 14.8 0.00 0.00 0.00 72 1009.3
20260507084559 63 280 10.4 14.8 0.00 0.00 0.00 72 1009.4
20260507084059 63 226 8.7 17.4 0.00 0.00 0.00 73 1009.3
20260507083559 63 232 7.8 13.0 0.00 0.00 0.00 73 1009.2
20260507083059 63 298 7.0 14.8 0.00 0.00 0.00 73 1009.2
20260507082559 63 232 7.8 14.8 0.00 0.00 0.00 73 1009.2
20260507082059 63 270 5.2 13.0 0.00 0.00 0.00 73 1009.2
20260507081559 63 248 7.0 15.6 0.00 0.00 0.00 73 1008.9
20260507081059 63 221 10.4 19.1 0.00 0.00 0.00 73 1009.0
20260507080559 63 259 3.5 19.1 0.00 0.00 0.00 73 1009.0
20260507080059 63 230 8.7 17.4 0.00 0.00 0.00 72 1008.8
20260507075559 63 208 9.6 17.4 0.00 0.00 0.00 71 1008.8
20260507075059 63 236 8.7 17.4 0.00 0.00 0.00 72 1008.5
20260507074559 63 230 10.4 19.1 0.00 0.00 0.00 72 1008.5
20260507074059 63 141 12.2 24.3 0.00 0.00 0.00 72 1008.8
20260507073559 63 233 7.0 13.0 0.00 0.00 0.00 72 1008.6
20260507073059 61 230 7.8 11.3 0.00 0.00 0.00 72 1008.5
20260507072559 61 236 9.6 19.1 0.00 0.00 0.00 74 1008.5
20260507072059 61 215 18.2 22.6 0.00 0.00 0.00 73 1008.6
20260507071559 61 231 14.8 19.1 0.00 0.00 0.00 73 1008.5
20260507071059 61 250 7.0 15.6 0.00 0.00 0.00 74 1008.5
20260507070559 61 219 8.7 15.6 0.00 0.00 0.00 74 1008.6
20260507070059 61 236 7.8 11.3 0.00 0.00 0.00 74 1008.6
20260507065559 61 229 5.2 15.6 0.00 0.00 0.00 75 1008.7
20260507065059 59 205 5.2 14.8 0.00 0.00 0.00 75 1008.7
20260507064559 59 223 10.4 22.6 0.00 0.00 0.00 75 1008.6
20260507064059 59 204 8.7 15.6 0.00 0.00 0.00 75 1008.6
20260507063559 61 220 7.0 11.3 0.00 0.00 0.00 75 1008.5
20260507063059 61 224 10.4 15.6 0.00 0.00 0.00 74 1008.4
20260507062559 61 232 7.0 13.0 0.00 0.00 0.00 74 1008.4
20260507062059 59 268 10.4 14.8 0.00 0.00 0.00 74 1008.5
20260507061559 59 263 5.2 9.6 0.00 0.00 0.00 75 1008.3
20260507061059 59 211 7.0 11.3 0.00 0.00 0.00 75 1008.4
20260507060559 59 244 2.6 3.5 0.00 0.00 0.00 74 1008.5
20260507060059 59 246 0.9 3.5 0.00 0.00 0.00 74 1008.1
20260507055559 59 246 1.7 3.5 0.00 0.00 0.00 73 1008.1
20260507055059 59 246 2.6 3.5 0.00 0.00 0.00 73 1008.1
20260507054559 59 240 3.5 4.3 0.00 0.00 0.00 73 1008.2
20260507054059 59 241 1.7 3.5 0.00 0.00 0.00 73 1008.0
20260507053559 59 254 3.5 3.5 0.00 0.00 0.00 73 1008.1
20260507053059 59 267 3.5 4.3 0.00 0.00 0.00 73 1008.3
20260507052559 59 229 0.9 3.5 0.00 0.00 0.00 73 1008.1
20260507052059 59 229 1.7 3.5 0.00 0.00 0.00 73 1007.9
20260507051559 59 229 2.6 3.5 0.00 0.00 0.00 73 1007.8
20260507051059 59 229 0.0 1.7 0.00 0.00 0.00 73 1008.0
20260507050559 59 229 0.9 1.7 0.00 0.00 0.00 73 1007.9
20260507050059 59 229 0.9 1.7 0.00 0.00 0.00 73 1007.8
20260507045559 59 229 0.0 0.0 0.00 0.00 0.00 73 1007.8
20260507045059 59 229 0.0 0.0 0.00 0.00 0.00 73 1007.7
20260507044559 59 229 0.0 1.7 0.00 0.00 0.00 73 1007.6
20260507044059 59 229 1.7 3.5 0.00 0.00 0.00 73 1007.6
20260507043559 59 229 1.7 3.5 0.00 0.00 0.00 73 1007.7
20260507043059 59 229 0.9 4.3 0.00 0.00 0.00 72 1007.6
20260507042559 59 229 1.7 3.5 0.00 0.00 0.00 71 1007.6
20260507042059 59 229 1.7 3.5 0.00 0.00 0.00 71 1007.3
20260507041559 59 229 0.0 0.0 0.00 0.00 0.00 71 1007.3
20260507041059 59 229 0.0 0.0 0.00 0.00 0.00 72 1007.5
20260507040059 59 229 0.0 0.0 0.00 0.00 0.00 72 1007.4
20260507035559 59 229 0.0 0.0 0.00 0.00 0.00 71 1007.1
20260507035059 59 229 0.0 0.0 0.00 0.00 0.00 71 1007.1
20260507034559 59 229 0.0 0.0 0.00 0.00 0.00 71 1007.2
20260507034059 59 229 1.7 4.3 0.00 0.00 0.00 71 1006.8
20260507033559 59 229 1.7 3.5 0.00 0.00 0.00 71 1006.9
20260507033059 59 229 1.7 3.5 0.00 0.00 0.00 71 1006.9
20260507032559 59 229 0.9 1.7 0.00 0.00 0.00 71 1006.6
20260507032059 59 229 0.0 1.7 0.00 0.00 0.00 71 1006.9
20260507031559 59 229 0.0 1.7 0.00 0.00 0.00 71 1006.6
20260507031059 59 229 0.0 0.0 0.00 0.00 0.00 71 1006.9
20260507030559 59 229 0.0 1.7 0.00 0.00 0.00 71 1006.8
20260507030059 59 229 0.0 1.7 0.00 0.00 0.00 71 1006.8
20260507025559 59 229 0.0 0.0 0.00 0.00 0.00 71 1006.9
20260507025059 59 229 0.0 1.7 0.00 0.00 0.00 71 1006.8
20260507024559 59 229 0.0 0.0 0.00 0.00 0.00 71 1006.9
20260507024059 59 229 0.0 1.7 0.00 0.00 0.00 71 1006.8
20260507023559 59 229 0.9 1.7 0.00 0.00 0.00 71 1006.7
20260507023059 59 229 0.0 0.0 0.00 0.00 0.00 71 1006.8
20260507022559 59 229 1.7 1.7 0.00 0.00 0.00 72 1006.6
20260507022059 57 229 1.7 1.7 0.00 0.00 0.00 73 1006.6
20260507021559 57 229 0.0 0.0 0.00 0.00 0.00 73 1006.6
20260507021059 59 229 0.0 0.0 0.00 0.00 0.00 72 1006.5
20260507020559 59 229 0.0 1.7 0.00 0.00 0.00 71 1006.4
20260507020059 59 229 0.0 0.0 0.00 0.00 0.00 70 1006.3
20260507015559 59 229 1.7 3.5 0.00 0.00 0.00 70 1006.5
20260507015059 59 229 2.6 4.3 0.00 0.00 0.00 69 1006.2
20260507014559 59 244 1.7 3.5 0.00 0.00 0.00 69 1006.5
20260507014059 61 243 3.5 4.3 0.00 0.00 0.00 69 1006.2
20260507013559 61 249 1.7 3.5 0.00 0.00 0.00 69 1006.4
20260507013059 61 239 1.7 3.5 0.00 0.00 0.00 69 1006.3
20260507012559 61 239 0.9 3.5 0.00 0.00 0.00 68 1006.2
20260507012059 61 239 1.7 3.5 0.00 0.00 0.00 68 1006.2
20260507011559 59 239 1.7 4.3 0.00 0.00 0.00 69 1006.1
20260507011059 59 237 3.5 4.3 0.00 0.00 0.00 69 1006.4
20260507010559 59 238 4.3 4.3 0.00 0.00 0.00 70 1006.3
20260507010059 59 332 0.9 3.5 0.00 0.00 0.00 70 1006.4
20260507005559 59 332 0.0 0.0 0.00 0.00 0.00 69 1006.3
20260507005059 61 332 0.0 1.7 0.00 0.00 0.00 68 1006.3
20260507004559 61 332 0.9 3.5 0.00 0.00 0.00 68 1005.9
20260507004059 59 332 0.0 3.5 0.00 0.00 0.00 69 1006.1
20260507003559 59 332 0.9 1.7 0.00 0.00 0.00 69 1006.3
20260507003059 59 332 0.0 1.7 0.00 0.00 0.00 69 1006.3
20260507002559 59 332 0.9 1.7 0.00 0.00 0.00 69 1006.2
20260507002059 59 332 0.9 3.5 0.00 0.00 0.00 69 1006.3
20260507001559 59 284 0.0 1.7 0.00 0.00 0.00 69 1006.4
20260507001059 59 284 2.6 3.5 0.00 0.00 0.00 69 1006.4
20260507000559 59 221 2.6 3.5 0.00 0.00 0.00 68 1006.2
20260507000059 61 221 0.0 0.0 0.00 0.00 0.00 67 1006.3
20260506235559 61 221 0.0 0.0 0.00 0.00 0.00 67 1006.4
20260506235059 61 221 0.0 1.7 0.00 0.00 0.00 68 1006.3
20260506234559 61 221 0.9 3.5 0.00 0.00 0.00 67 1006.3
20260506234059 61 220 2.6 6.1 0.00 0.00 0.00 66 1006.3
20260506233559 61 224 1.7 4.3 0.00 0.00 0.00 67 1006.4
20260506233059 61 215 1.7 4.3 0.00 0.00 0.00 67 1006.4
20260506232559 61 206 1.7 4.3 0.00 0.00 0.00 67 1006.3
20260506232059 61 157 1.7 4.3 0.00 0.00 0.00 66 1006.4
20260506231559 61 155 3.5 6.1 0.00 0.00 0.00 66 1006.4
20260506231059 61 189 5.2 6.1 0.00 0.00 0.00 67 1006.4
20260506230559 61 167 2.6 3.5 0.00 0.00 0.00 67 1006.5
20260506230059 59 160 0.0 0.0 0.00 0.00 0.00 67 1006.6
20260506225559 61 160 0.0 0.0 0.00 0.00 0.00 67 1006.4
20260506225059 61 168 3.5 4.3 0.00 0.00 0.00 66 1006.3
20260506224559 61 151 0.0 0.0 0.00 0.00 0.00 65 1006.5
20260506224059 61 151 1.7 3.5 0.00 0.00 0.00 64 1006.1
20260506223559 61 151 3.5 4.3 0.00 0.00 0.00 64 1006.3
20260506223059 61 110 0.0 1.7 0.00 0.00 0.00 65 1006.2
20260506222559 61 110 0.9 1.7 0.00 0.00 0.00 66 1006.3
20260506222059 59 110 0.0 1.7 0.00 0.00 0.00 68 1006.4
20260506221559 61 110 3.5 4.3 0.00 0.00 0.00 67 1006.3
20260506221059 61 130 0.9 1.7 0.00 0.00 0.00 67 1006.2
20260506220559 61 139 0.0 0.0 0.00 0.00 0.00 65 1006.3
20260506220059 61 139 0.0 0.0 0.00 0.00 0.00 65 1006.3
20260506215559 61 139 0.9 3.5 0.00 0.00 0.00 65 1006.3
20260506215059 61 139 1.7 4.3 0.00 0.00 0.00 65 1006.2
20260506214559 61 108 2.6 3.5 0.00 0.00 0.00 64 1006.3
20260506214059 63 108 1.7 3.5 0.00 0.00 0.00 64 1006.4
20260506213559 63 108 1.7 3.5 0.00 0.00 0.00 63 1006.4
20260506213059 63 107 2.6 3.5 0.00 0.00 0.00 63 1006.2
20260506212559 63 114 0.0 1.7 0.00 0.00 0.00 63 1006.1
20260506212059 63 114 1.7 3.5 0.00 0.00 0.00 63 1006.5
20260506211559 63 114 0.0 1.7 0.00 0.00 0.00 63 1006.3
20260506211059 63 114 0.9 3.5 0.00 0.00 0.00 63 1006.2
20260506210559 63 114 0.9 4.3 0.00 0.00 0.00 62 1006.1
20260506210059 63 115 3.5 6.1 0.00 0.00 0.00 62 1006.0
20260506205559 63 95 4.3 4.3 0.00 0.00 0.00 63 1006.1
20260506205059 63 94 1.7 3.5 0.00 0.00 0.00 63 1006.1
20260506204559 63 94 3.5 4.3 0.00 0.00 0.00 63 1006.0
20260506204059 63 94 4.3 4.3 0.00 0.00 0.00 63 1006.2
20260506203559 63 83 3.5 3.5 0.00 0.00 0.00 64 1006.3
20260506203059 63 83 2.6 3.5 0.00 0.00 0.00 64 1006.1
20260506202559 63 83 3.5 4.3 0.00 0.00 0.00 63 1006.0
20260506202059 63 135 3.5 4.3 0.00 0.00 0.00 63 1006.1
20260506201559 63 135 0.9 3.5 0.00 0.00 0.00 63 1006.2
20260506201059 63 135 2.6 3.5 0.00 0.00 0.00 63 1006.1
20260506200559 63 135 1.7 1.7 0.00 0.00 0.00 62 1006.0
20260506200059 63 135 1.7 3.5 0.00 0.00 0.00 61 1006.1
20260506195559 63 136 3.5 4.3 0.00 0.00 0.00 60 1006.1
20260506195059 63 228 0.0 0.0 0.00 0.00 0.00 59 1005.7
20260506194559 64 228 0.0 0.0 0.00 0.00 0.00 59 1006.1
20260506194059 64 228 0.9 1.7 0.00 0.00 0.00 59 1005.7
20260506193559 64 228 0.0 0.0 0.00 0.00 0.00 58 1005.8
20260506193059 64 228 0.9 1.7 0.00 0.00 0.00 57 1005.8
20260506192559 64 228 0.9 1.7 0.00 0.00 0.00 57 1005.7
20260506192059 64 228 1.7 1.7 0.00 0.00 0.00 56 1005.9
20260506191559 64 228 0.0 1.7 0.00 0.00 0.00 56 1005.8
20260506191059 64 228 0.9 1.7 0.00 0.00 0.00 55 1005.8
20260506190559 64 228 0.0 0.0 0.00 0.00 0.00 54 1005.8
20260506190059 64 240 0.0 0.0 0.00 0.00 0.00 54 1005.6
20260506185559 64 240 0.0 0.0 0.00 0.00 0.00 54 1005.6
20260506185059 64 244 1.7 1.7 0.00 0.00 0.00 53 1005.6
20260506184559 64 240 0.0 0.0 0.00 0.00 0.00 53 1005.3
20260506184059 66 244 0.0 1.7 0.00 0.00 0.00 52 1005.3
20260506183559 66 246 0.0 1.7 0.00 0.00 0.00 52 1005.3
20260506183059 66 246 0.0 0.0 0.00 0.00 0.00 51 1005.3
20260506182559 66 247 0.0 0.0 0.00 0.00 0.00 51 1005.2
20260506182059 66 247 0.9 1.7 0.00 0.00 0.00 51 1005.1
20260506181559 66 246 0.9 1.7 0.00 0.00 0.00 51 1005.3
20260506181059 66 247 1.7 1.7 0.00 0.00 0.00 52 1004.8
20260506180559 68 247 0.0 1.7 0.00 0.00 0.00 52 1005.0
20260506180059 68 240 0.9 1.7 0.00 0.00 0.00 52 1004.8
20260506175559 68 247 0.9 3.5 0.00 0.00 0.00 51 1004.6
20260506175059 68 247 0.0 0.0 0.00 0.00 0.00 50 1004.7
20260506174559 70 247 0.0 0.0 0.00 0.00 0.00 47 1004.8
20260506174059 68 247 0.0 0.0 0.00 0.00 0.00 46 1004.8
20260506173559 68 247 0.0 0.0 0.00 0.00 0.00 48 1005.0
20260506173059 68 247 0.0 0.0 0.00 0.00 0.00 46 1005.0
20260506172559 68 247 0.0 0.0 0.00 0.00 0.00 48 1005.1
20260506172059 68 247 0.0 0.0 0.00 0.00 0.00 47 1004.9
20260506171559 68 247 0.0 0.0 0.00 0.00 0.00 47 1005.0
20260506171059 68 247 0.0 0.0 0.00 0.00 0.00 47 1004.9
20260506170559 70 246 0.0 0.0 0.00 0.00 0.00 46 1005.0
20260506170059 70 247 0.0 1.7 0.00 0.00 0.00 45 1004.7
20260506165559 70 247 1.7 3.5 0.00 0.00 0.00 45 1004.7
20260506165059 70 248 0.9 4.3 0.00 0.00 0.00 44 1004.7
20260506164559 70 243 1.7 6.1 0.00 0.00 0.00 44 1004.8
20260506164059 70 236 5.2 9.6 0.00 0.00 0.00 43 1004.8
20260506163559 70 246 7.8 7.8 0.00 0.00 0.00 44 1004.7
20260506163059 72 272 7.8 11.3 0.00 0.00 0.00 44 1004.6
20260506162559 72 264 4.3 7.8 0.00 0.00 0.00 44 1004.6
20260506162059 72 244 5.2 11.3 0.00 0.00 0.00 44 1004.6
20260506161559 72 274 4.3 9.6 0.00 0.00 0.00 46 1004.7
20260506161059 72 295 7.0 13.0 0.00 0.00 0.00 46 1004.6
20260506160559 73 246 8.7 11.3 0.00 0.00 0.00 45 1004.7
20260506160059 73 268 9.6 13.0 0.00 0.00 0.00 43 1004.6
20260506155559 73 234 3.5 9.6 0.00 0.00 0.00 43 1004.4
20260506155059 73 251 7.8 9.6 0.00 0.00 0.00 43 1004.5
20260506154559 73 253 5.2 13.0 0.00 0.00 0.00 43 1004.6
20260506154059 73 230 3.5 7.8 0.00 0.00 0.00 43 1004.6
20260506153559 73 237 9.6 13.0 0.00 0.00 0.00 41 1004.7
20260506153059 73 244 7.0 11.3 0.00 0.00 0.00 41 1004.5
20260506152559 75 209 8.7 13.0 0.00 0.00 0.00 42 1004.5
20260506152059 75 189 10.4 13.0 0.00 0.00 0.00 40 1004.4
20260506151559 75 180 7.8 9.6 0.00 0.00 0.00 39 1004.3
20260506151059 75 294 3.5 9.6 0.00 0.00 0.00 38 1004.5
20260506150559 75 244 7.8 14.8 0.00 0.00 0.00 41 1004.5
20260506150059 75 250 9.6 17.4 0.00 0.00 0.00 39 1004.4
20260506145559 75 232 5.2 7.8 0.00 0.00 0.00 39 1004.4
20260506145059 75 179 5.2 9.6 0.00 0.00 0.00 43 1004.6
20260506144559 75 233 2.6 9.6 0.00 0.00 0.00 43 1004.8
20260506144059 75 239 7.0 9.6 0.00 0.00 0.00 41 1004.9
20260506143559 75 260 8.7 13.0 0.00 0.00 0.00 40 1005.0
20260506143059 75 257 13.0 17.4 0.00 0.00 0.00 40 1004.9
20260506142559 75 243 19.1 26.1 0.00 0.00 0.00 40 1004.9
20260506142059 75 204 9.6 17.4 0.00 0.00 0.00 39 1004.9
20260506141559 75 240 12.2 20.9 0.00 0.00 0.00 40 1004.9
20260506141059 75 242 12.2 22.6 0.00 0.00 0.00 38 1004.9
20260506140559 75 218 7.0 19.1 0.00 0.00 0.00 40 1004.9
20260506140059 75 246 18.2 22.6 0.00 0.00 0.00 38 1004.9
20260506135559 75 218 4.3 14.8 0.00 0.00 0.00 41 1004.8